Regional Weather Roundup
Issued by NWS Wakefield, VA

Home | Current Version | Previous Version | Text Only | Print | Product List | Glossary Off
Versions: 1 2 3 4 5 6 7 8 9 10 11 12 13 14 15 16 17 18 19 20 21 22 23 24 25 26 27 28 29 30 31 32 33 34 35 36 37 38 39 40 41 42 43 44 45 46 47 48 49 50

000
ASUS41 KAKQ 221415
RWRAKQ

REGIONAL WEATHER ROUNDUP
NATIONAL WEATHER SERVICE WAKEFIELD VA
900 AM EST THU FEB 22 2018

Note: "fair" indicates few or no clouds below 12,000 feet with no
significant weather and/or obstructions to visibility. * = Denotes
station may not report precipitation (e.g., rain,snow,etc.),
thunder or fog.

VAZ042-051-052>054-056-221500-
NORTHERN VIRGINIA

CITY           SKY/WX    TMP DP  RH WIND       PRES   REMARKS
WASH NATIONAL  CLOUDY    56  38  50 NE15      30.48R
DULLES         CLOUDY    50  42  74 N12       30.48S
FORT BELVOIR   CLOUDY    56  38  50 NE6       30.48R
QUANTICO       CLOUDY    57  45  64 NE10      30.48R
FREDERICKSBRG* DRIZZLE   58  50  76 N8        30.46R
STAFFORD*      CLOUDY    58  47  66 NE5       30.51R
WARRENTON      CLOUDY    52  42  68 N7        30.47R
CULPEPER*      CLOUDY    54  45  71 N6        30.49R
MANASSAS*      CLOUDY    52  43  71 N9        30.49R
LEESBURG*      CLOUDY    50  37  62 NE9G18    30.50S
WINCHESTER     CLOUDY    45  34  65 N6        30.50S
FRONT ROYAL*   CLOUDY    46  37  71 N8        30.47F
LURAY*         CLOUDY    48  45  87 NE12      30.45S
$$

VAZ048-049-060>072-079>083-221500-
CENTRAL AND SOUTH CENTRAL VIRGINIA

CITY           SKY/WX    TMP DP  RH WIND       PRES   REMARKS
RICHMOND       CLOUDY    63  62  97 S12       30.44R FOG
CHESTERFIELD*  CLOUDY    63  62  97 S9        30.45R
PETERSBURG*    NOT AVBL
HANOVER        CLOUDY    62  62 100 S7        30.44S FOG
TAPPAHANNOCK*  CLOUDY    64  64  99 S3        30.44R FOG
QUINTON*       CLOUDY    63  63 100 MISG      30.44R FOG
CHARLOTTSVILLE CLOUDY    57  50  77 NE13      30.45R
GORDONSVILLE*  CLOUDY    55  49  82 NE7       30.45R
ORANGE*        CLOUDY    52  45  76 N10       30.46S
LOUISA*        CLOUDY    56  51  84 N6        30.49R
BUMPASS*       CLOUDY    58  57  95 N6        30.44R
FARMVILLE*     CLOUDY   N/A N/A N/A SW6       30.43R
CREWE*         CLOUDY    64  64 100 SW3       30.44R
FORT PICKETT*  CLOUDY    63  63 100 SW12G20   30.45R
CHASE CITY*    CLOUDY    65  65 100 SW5       30.45R
CLARKSVILLE*   CLOUDY    66  66 100 SW12G17   30.45R
SOUTH HILL*    CLOUDY    64  64 100 S7        30.51R
LAWRENCEVILLE* CLOUDY    64  63  97 S3        30.45S
EMPORIA*       CLOUDY    64  64 100 S3        30.47S
$$

VAZ088>098-221500-
SOUTHEAST VIRGINIA

CITY           SKY/WX    TMP DP  RH WIND       PRES   REMARKS
NORFOLK        CLOUDY    67  64  90 SW14      30.45S
VIRGINIA BEACH CLOUDY    66  62  87 SW13      30.45S
NORFOLK NAVAL  NOT AVBL
WEST POINT*    CLOUDY    64  62  94 CALM      30.46R
SALUDA*        CLOUDY    65  65 100 SW3       30.44R
NEWPORT NEWS   CLOUDY    65  62  90 SW9       30.45S
LANGLEY AFB    CLOUDY    65  65 100 SW12      30.45S
FORT EUSTIS    CLOUDY    64  63  97 SW6       30.43R
WILLIAMSBURG*  CLOUDY    66  64  94 SW8       30.46R
HR EXEC AP*    CLOUDY    67  64  90 SW13      30.47R
FRANKLIN*      CLOUDY    66  64  91 SW9       30.47R
US460-WAKEFLD  CLOUDY    66  65  96 S7        30.45R
$$

VAZ020-022-025-037-045-221500-
WEST CENTRAL AND SOUTHWEST VIRGINIA

CITY           SKY/WX    TMP DP  RH WIND       PRES   REMARKS
STAUNTON*      CLOUDY    52  49  92 N5        30.45S
WAYNESBORO*    CLOUDY    56  55  97 N7        30.44S
HOT SPRINGS VA CLOUDY    59  58  99 SW10G18   30.46R
LYNCHBURG      CLOUDY    65  62  90 S8        30.43R
DANVILLE       CLOUDY    64  64 100 SW6       30.44S
SOUTH BOSTON*  CLOUDY    65  64  96 SW6       30.45R
MARTINSVILLE   CLOUDY    64  61  88 S8G20     30.46R
ROANOKE        FAIR      63  60  90 CALM      30.43R
BLACKSBURG     FAIR      68  60  76 SW6       30.45S
DUBLIN*        PTSUNNY   68  60  75 S8        30.43S
MARION*        FAIR      68  55  63 CALM      30.45R
HILLSVILLE*    CLOUDY    63  59  88 S15G21    30.45R
RICHLANDS*     FAIR      66  54  64 SW13G25   30.42R
WISE*          PTSUNNY   64  55  72 SW16G24   30.42R
ABINGDON*      FAIR      68  59  73 W6        30.41R
$$

MDZ021>025-VAZ099-100-221500-
SOUTHERN MARYLAND AND THE DELMARVA PENINSULA

CITY           SKY/WX    TMP DP  RH WIND       PRES   REMARKS
PATUXENT RIVER CLOUDY    54  51  90 NE6       30.46R
BAY BRIDGE APT CLOUDY    54  41  62 N7        30.50R
LEONARDTOWN    CLOUDY    54  48  82 N3        30.47R
DOVER          CLOUDY    54  44  70 E7        30.50R
GEORGETOWN     CLOUDY    53  40  61 E16G23    30.50R
EASTON         CLOUDY    59  41  51 E12G20    30.52R
CAMBRIDGE      CLOUDY    57  45  62 E15       30.47R
SALISBURY      CLOUDY    54  43  66 E17       30.48R
OCEAN CITY     CLOUDY    50  44  80 NE8       30.48R
WALLOPS ISLAND CLOUDY   N/A N/A N/A NE15      30.46S FOG
ACCOMACK*      CLOUDY    68  65  89 CALM      30.44S
$$

NCZ012>017-030>032-221500-
NORTH CENTRAL AND EASTERN NORTH CAROLINA

CITY           SKY/WX    TMP DP  RH WIND       PRES   REMARKS
ROANOKE RAPIDS CLOUDY    68  64  88 SW7       30.45S
RALEIGH        CLOUDY    67  63  87 SW12      30.47R
ELIZABETH CITY CLOUDY    66  66 100 S9        30.49R FOG
AHOSKIE*       CLOUDY    65  65  99 S6        30.47S
EDENTON*       CLOUDY    66  66 100 S5        30.50S FOG
CURRITUCK*     CLOUDY    60  60  99 SW5       30.49S FOG
KILL DEVIL HLS CLOUDY   N/A N/A N/A SW3       30.49R FOG
MANTEO         FOG       62  62 100 SW5       30.51R VSB 1/4
CAPE HATTERAS  FAIR      67  65  93 SW5       30.50R
TARBORO*       NOT AVBL
GOLDSBORO      PTSUNNY   67  66  97 SW9       30.47S
WASHINGTON     CLOUDY    67  65  94 SW8       30.50R
GREENVILLE     CLOUDY    68  66  94 SW13      30.48S
NEW BERN       FAIR      69  67  93 SW7       30.51R
WILMINGTON     FAIR      70  65  84 SW6       30.50S
$$

VAZ048-221500-
ELSEWHERE

CITY           SKY/WX    TMP DP  RH WIND       PRES   REMARKS
HARRISBURG PA  CLOUDY    44  36  73 VRB5      30.55R
BALTIMORE      CLOUDY    52  37  56 NE12      30.49R
ANNAPOLIS      CLOUDY    54  43  66 N9        30.49R
ANDREWS AFB    CLOUDY    54  37  54 NE13      30.47R
PHILADELPHIA   LGT RAIN  48  41  76 NE13      30.55R
HENDERSON NC   CLOUDY    64  60  84 SW8G18    30.46R
GREENSBORO     CLOUDY    65  63  93 SW10      30.46R
ROCKY MOUNT    CLOUDY    67  65  93 S12G18    30.47S
$$

VAZ100-221500-
MARINE

STATION/POSITION TIME  TEMP    WIND        PRES    WAVE   SWELL
                       AIR SEA DIR/SP/G            HT/PER HT/PER
                 (UTC) (F)     (DEG/KT/KT) (MB)    (FT/S) (FT/S)
BRANDYWINE LGT   1336   50      70/ 19/ 22 1032.5R
CAPE MAY NJ      1336   50 44   70/ 18/ 28 1031.6R
LEWES DE         1336   46 46   80/ 14/ 16 1032.6R
15NM E FENWICK I 1350   47 42   60/ 16/ 17 1031.9S   3/13   2/13
OCEAN-CITY-INLET 1336   47 49   70/  8/ 12 1032.4R
WACHAPREAGUE VA  1336   59 58   60/  4/  7 1031.0R
THOMAS POINT MD  1400   49 41   30/ 11/ 14   N/A
COVE POINT MD    1336   47     360/ 10/ 13 1032.0R
SOLOMONS ISLAND  1336   57 43   60/  8/ 10 1031.0R
BISHOPS HEAD MD  1336   54 51   70/ 10/ 12 1031.4R
PINEY POINT MD   1336          150/  4/  5   N/A
CAMBRIDGE MD     1336   55 49              1032.4R
LEWISETTA VA     1336   49 52  130/  6/  7 1030.8R
RAPPAHANNOCK LGT 1336          240/  5/  6 1031.5R
YORK RVR RNG VA  1336   61     240/  7/  9 1031.4R
YORKTOWN VA      1336   64 48  210/ 13/ 16 1030.4R
DOMINION TERM VA 1336   59     230/  8/ 10 1031.4S
KIPTOPEKE VA     1336      46  170/  5/  7   N/A
CAPE HENRY VA    1336   66     220/  6/ 11   N/A
S CRANEY ISL VA  1336   65     220/  7/ 11 1031.0S
CAPE HENRY BUOY  1330      45                N/A     2/15   2/15
CAPE CHARLES BUO 1351      45                N/A     2/14   2/14
64NM E OF VA BCH 1350   53 50  210/ 10/ 10 1032.6R   3/15   3/15
DUCK PIER NC     1336   62 44  230/  9/ 11 1032.2R
44100 DUCK FRF   1345      47                N/A     4/13   2/13
44056 DUCK FRF   1400      47                N/A     3/13   2/13
OREGON INLET NC  1336   59 62  230/  3/  4 1032.7R
HATTERAS NC      1336   65 60  220/  6/  7 1032.7R
DIAMOND SHLS NC  1350   71 69  200/ 12/ 14 1033.3R   4/15   3/15
CAPE LOOKOUT NC  1400          210/  6/  8 1033.4R
$$



USA.gov is the U.S. government's official web portal to all federal, state and local government web resources and services.